Shreveport Downtown, LA

3:59 AM CST on December 11, 2017 (GMT -0600)
Shreveport Downtown

Weather History for KDTN - April, 2013

Change the Weather History Date:

Monday, April 1, 2013

  Actual Average (KBAD) Record (KBAD)
Temperature  
Mean Temperature 62 °F -  
Max Temperature 78 °F 71 °F 86 °F (1998)
Min Temperature 48 °F 51 °F 36 °F (2009)
Degree Days  
Heating Degree Days 4    
Growing Degree Days 12 (Base 50)    
Moisture  
Dew Point 52 °F    
Average Humidity 82    
Maximum Humidity 100    
Minimum Humidity 33    
Precipitation  
Precipitation 0.01 in - - ()
Sea Level Pressure  
Sea Level Pressure 30.02 in    
Wind  
Wind Speed 1 mph (SE)    
Max Wind Speed 8 mph    
Max Gust Speed -    
Visibility 5 miles    
Events Fog    
Averages and records for this station are not official NWS values.
T = Trace of Precipitation, MM = Missing Value Source: NWS Daily Summary

Daily Weather History Graph

Daily Weather History Graph

Search for Another Location

Airport or City:

Trip Planner

Search our weather history database for the weather conditions in past years. The results will help you decide how hot, cold, wet, or windy it might be!

Date:

Astronomy

Apr. 01, 2013 Rise Set
Actual Time 7:02 AM CDT 7:35 PM CDT
Civil Twilight 6:38 AM CDT 7:59 PM CDT
Nautical Twilight 6:08 AM CDT 8:29 PM CDT
Astronomical Twilight 5:39 AM CDT 8:58 PM CDT
Moon 12:29 AM CDT (4/1) 11:04 AM CDT (4/1)
Length of Visible Light 13h 21m
Length of Day
12h 32m
Waning Gibbous, 67% of the Moon is Illuminated
Apr 1
Waning Gibbous
Apr 2
Last Quarter
Apr 10
New
Apr 18
First Quarter
Apr 25
Full

Hourly Weather History & Observations

Time (CDT) Temp. Dew Point Humidity Pressure Visibility Wind Dir Wind Speed Gust Speed Precip Events Conditions
12:12 AM 55.4 °F 53.6 °F 94% 29.97 in 2.5 mi Calm Calm - N/A   Clear
12:19 AM 55.4 °F 53.6 °F 94% 29.97 in 10.0 mi Calm Calm - N/A   Clear
12:53 AM 54.0 °F 54.0 °F 100% 29.98 in 2.0 mi Calm Calm - N/A   Clear
1:03 AM 53.6 °F 53.6 °F 100% 29.98 in 1.5 mi Calm Calm - N/A   Clear
1:09 AM 53.6 °F 51.8 °F 94% 29.98 in 3.0 mi Calm Calm - N/A   Clear
1:41 AM 53.6 °F 53.6 °F 100% 29.98 in 0.8 mi Calm Calm - N/A   Clear
1:51 AM 53.6 °F 51.8 °F 94% 29.98 in 2.5 mi Calm Calm - N/A   Clear
2:03 AM 53.6 °F 51.8 °F 94% 29.99 in 7.0 mi Calm Calm - N/A   Scattered Clouds
2:11 AM 53.6 °F 51.8 °F 94% 29.99 in 10.0 mi Calm Calm - N/A   Mostly Cloudy
2:29 AM 51.8 °F 51.8 °F 100% 29.99 in 1.8 mi Calm Calm - N/A   Overcast
2:38 AM 51.8 °F 51.8 °F 100% 29.99 in 0.5 mi Calm Calm - N/A Fog Fog
2:47 AM 53.6 °F 51.8 °F 94% 29.99 in 2.5 mi Calm Calm - N/A   Overcast
2:53 AM 53.1 °F 52.0 °F 96% 29.99 in 0.8 mi Calm Calm - N/A   Mist
3:53 AM 52.0 °F 51.1 °F 97% 30.00 in 0.2 mi Calm Calm - N/A Fog Fog
4:53 AM 51.1 °F 51.1 °F 100% 30.01 in 3.0 mi NNW 3.5 mph - N/A   Overcast
4:59 AM 51.8 °F 51.8 °F 100% 30.01 in 1.5 mi Calm Calm - N/A   Overcast
5:08 AM 51.8 °F 51.8 °F 100% 30.01 in 0.5 mi Calm Calm - N/A Fog Fog
5:53 AM 50.0 °F 48.9 °F 96% 30.02 in 0.2 mi Calm Calm - 0.01 in Fog Fog
6:53 AM 48.9 °F 48.9 °F 100% 30.04 in 0.2 mi Calm Calm - N/A Fog Fog
7:53 AM 51.1 °F 51.1 °F 100% 30.06 in 0.2 mi Calm Calm - N/A Fog Fog
8:53 AM 55.0 °F 55.0 °F 100% 30.09 in 0.2 mi Calm Calm - N/A Fog Fog
9:08 AM 57.2 °F 57.2 °F 100% 30.09 in 2.0 mi Calm Calm - N/A   Mostly Cloudy
9:16 AM 57.2 °F 57.2 °F 100% 30.10 in 5.0 mi Calm Calm - N/A   Mostly Cloudy
9:30 AM 57.2 °F 57.2 °F 100% 30.09 in 6.0 mi SE 4.6 mph - N/A   Partly Cloudy
9:53 AM 60.1 °F 59.0 °F 96% 30.09 in 8.0 mi SSE 4.6 mph - N/A   Clear
10:53 AM 66.9 °F 59.0 °F 76% 30.10 in 10.0 mi Calm Calm - N/A   Clear
11:53 AM 71.1 °F 54.0 °F 55% 30.09 in 10.0 mi Variable 5.8 mph - N/A   Clear
1:53 PM 73.0 °F 53.1 °F 49% 30.06 in 10.0 mi SE 8.1 mph - N/A   Clear
2:53 PM 73.9 °F 50.0 °F 43% 30.04 in 10.0 mi Calm Calm - N/A   Clear
3:53 PM 75.0 °F 48.0 °F 38% 30.02 in 10.0 mi SSE 5.8 mph - N/A   Clear
4:53 PM 75.0 °F 44.1 °F 33% 30.01 in 10.0 mi SSE 3.5 mph - N/A   Clear
5:53 PM 75.0 °F 46.0 °F 36% 29.99 in 10.0 mi SSE 8.1 mph - N/A   Clear
6:53 PM 72.0 °F 51.1 °F 48% 29.99 in 10.0 mi SE 4.6 mph - N/A   Clear
7:53 PM 70.0 °F 48.9 °F 47% 29.99 in 10.0 mi Calm Calm - N/A   Clear
8:53 PM 63.0 °F 50.0 °F 63% 30.00 in 10.0 mi Calm Calm - N/A   Clear
9:53 PM 57.9 °F 50.0 °F 75% 30.02 in 10.0 mi ESE 3.5 mph - N/A   Clear
10:53 PM 61.0 °F 50.0 °F 67% 30.04 in 10.0 mi SE 4.6 mph - N/A   Clear
11:53 PM 62.1 °F 48.0 °F 60% 30.03 in 10.0 mi SE 5.8 mph - N/A   Clear